sat.trackr.live / text

‹ back to catalog

STARLINK-34778

NORAD 65021 · 2025-161G

PAYLOAD ACTIVE UNKNOWN

§ Identity

Operator
Country
US
Launch date
2025-07-30
Launch site
AFWTR
Launch vehicle
Mass (kg)
RCS (m²)

Purposes: comms

External: N2YO · Heavens-Above · Gunter

§ Orbital elements

Epoch: 2026-09-20T22:36:21.047328Z

Period
93.85 min
Inclination
53.1596°
Eccentricity
0.0001267
Mean motion
15.34418968 rev/d
Perigee alt
461.8 km
Apogee alt
463.5 km
Semi-major
6,840.8 km
B*
4.1160e-4
RAAN
105.8739°
Arg perigee
98.6717°
Mean anomaly
261.4430°
Rev number
6,523

§ Raw data

STARLINK-347781 65021U 25161G   26263.94191027  .00013564  00000+0  41160-3 0  99942 65021  53.1596 105.8739 0001267  98.6717 261.4430 15.34418968 65237

JSON: /api/v1/satellites/65021 · /tle

For live sub-satellite position, see the globe view (requires WebGL).

§ Visibility from observer

Set your observer location to see the next 7 days of passes ≥ 10°. The values pass through the URL so the page stays shareable.

No JS? Fill the form by hand. The geolocation button needs JavaScript.